STARLINK-35377, 66185

Orbit data source: Space-Track

STARLINK-35377, 66185 is a payload satellite owned by SpaceX/Seattle (US) in LEO that was launched on Sun, 26 Oct 2025 UTC via an FALCON 9 launch vehicle from the Air Force Eastern Test Range (AFETR). Payload-class satellites include a variety of spacecraft equipped with specific instruments for various scientific and technological missions. These include communications satellites like Starlink; space stations such as the ISS; scientific satellites like the Hubble; Earth observation satellites from companies like Planet Labs, Umbra, and HawkEye 360; GPS; miniature CubeSats for education and research; and military/defense satellites.

Loading next visibility...
Identifier
66185, 2025-243J
Orbit
LEO
Country
Flag of USUS
Related business
Manufacturer
SpaceX/Seattle
Mission
Operational Commercial Communications
Bus & Motor
STARLINK V2MO, Unknown motor
Mass
575 kg wet, ~530 kg dry
Launch date (UTC)
2025-10-26 (8 months ago)
Launch vehicle
FALCON 9
Launch site
Air Force Eastern Test Range (AFETR)
Object type
Payload
Rocket body
Debris
Shape & HBR
Box + 2 Pan, 17.7 m
Radar Cross Section
36.964 m², Large (>1 m²)

Expand to show TLE details & history
Last TLE update: 1 day ago

TLE from 1 day ago
0 STARLINK-35377
1 66185U 25243J   26170.89203047  .00026093  00000-0  78036-3 0  9998
2 66185  53.1610 130.3823 0001349  86.4778 273.6378 15.34414357 36306
Epoch: 2026-06-19T21:24Z
TLE epoch observation values (Epoch: 2026-06-19T21:24:31.432Z)
Latitude
-0.0001°
Longitude
-98.86323°
Altitude
463.504 km
Speed
7.636 km/s
True Right ascension
08h 41m 31s
True Declination
0° 00' 00"
Sunlit
Object was in daylight at epoch
Visualization orbit readout
Latitude
Unknown
Longitude
Unknown
Altitude
Unknown
Speed
Unknown
Apparent Right ascension
Unknown
Apparent Declination
Unknown
Sunlit
N/A
Visualization observer readout
Local Sidereal Time
08:42:54
Azimuth
Unknown
Elevation
Unknown
Doppler factor
Unknown
Orbital elements
Apogee altitude
463.84 km
Perigee altitude
461.994 km
Semi-major axis
6,841.054 km
Eccentricity
0.00013
Inclination
53.161°
RAAN
130.3823°
Arg. of periapsis
86.4778°
True anomaly
273.62237°
Mean anomaly
273.6378°
Eccentric anomaly
273.63009°
Mean motion
3.83582 °/min
Orbital period
93.85 mins
BSTAR
0.00078036
Loading maneuver chart data...
Computing Atmospheric mass density...
Loading historical data...
Loading historical data...
Loading historical data...
Loading historical data...
Loading historical data...
Loading historical data...
Loading historical data...

Documentation

Showing up to 5 results
|